{"data":{"norad_id":69098,"epoch":"2026-09-20T04:39:02.878848Z","epoch_age_seconds":49735,"freshness":"FRESH","line1":"1 69098U 26106B   26263.19378332  .00002275  00000+0  14268-3 0  9991","line2":"2 69098  97.5018 343.2901 0014370 189.7812 170.3140 15.10244013 19318","mean_motion":15.10244013,"eccentricity":0.001437,"inclination_deg":97.5018,"raan_deg":343.2901,"arg_perigee_deg":189.7812,"mean_anomaly_deg":170.314,"bstar":0.00014268,"rev_number":1931,"period_min":95.348830229066,"perigee_km":525.52037594802,"apogee_km":545.39003995367,"semimajor_km":6913.5922079508,"source":"CELESTRAK","updated_at":"2026-09-20T09:00:24.675396Z"}}